QPF
0.00 0.00 0.00 0.00 0.00 0.00 0.00 0.00 0.00 0.00 0.00 0.00 0.00 0.00 0.00 0.00 0.00 0.00 0.00 0.00 0.00 0.00 0.00 0.00 0.00 0.00 0.00 0.00 0.00 0.00 0.00 0.00 0.00 0.00 0.00 0.00 0.00 0.00 0.00 0.00 0.00 0.00 0.00 0.00 0.00
0.00 0.00 0.00 0.00 0.00 0.00 0.00 0.00 0.00 0.00 0.00 0.00 0.00 0.00 0.00 0.00 0.00 0.00 0.00 0.00 0.00 0.00 0.00 0.00 0.00 0.00 0.00 0.00 0.00 0.00 0.00 0.00 0.00 0.00 0.00 0.00 0.00 0.00 0.00 0.00 0.00 0.00 0.00 0.00 0.00
0.00 0.00 0.00 0.00 0.00 0.00 0.00 0.00 0.00 0.00 0.00 0.00 0.00 0.00 0.00 0.00 0.00 0.00 0.00 0.00 0.00 0.00 0.00 0.00 0.00 0.00 0.00 0.00 0.00 0.00 0.00 0.00 0.00 0.00 0.00 0.00 0.00 0.00 0.00 0.00 0.00 0.00 0.00 0.00 0.00
0.00 0.00 0.00 0.00 0.00 0.00 0.00 0.00 0.00 0.00 0.00 0.00 0.00 0.00 0.00 0.00 0.00 0.00 0.00 0.00 0.00 0.00 0.00 0.00 0.00 0.00 0.00 0.00 0.00 0.00 0.00 0.00 0.00 0.00 0.00 0.00 0.00 0.00 0.00 0.00 0.00 0.00 0.00 0.00 0.00
0.00 0.00 0.00 0.00 0.00 0.00 0.00 0.00 0.00 0.00 0.00 0.00 0.00 0.00 0.00 0.00 0.00 0.00 0.00 0.00 0.00 0.00 0.00 0.00 0.00 0.00 0.00 0.00 0.00 0.00 0.00 0.00 0.00 0.00 0.00 0.00 0.00 0.00 0.00 0.00 0.00 0.00 0.00 0.00 0.00
0.00 0.00 0.00 0.00 0.00 0.00 0.00 0.00 0.00 0.00 0.00 0.00 0.00 0.00 0.00 0.00 0.00 0.00 0.00 0.00 0.00 0.00 0.00 0.00 0.00 0.00 0.00 0.00 0.00 0.00 0.00 0.00 0.00 0.00 0.00 0.00 0.00 0.00 0.00 0.00 0.00 0.00 0.00 0.00 0.00
0.00 0.00 0.00 0.00 0.00 0.00 0.00 0.00 0.00 0.00 0.00 0.00 0.00 0.00 0.00 0.00 0.00 0.00 0.00 0.00 0.00 0.00 0.00 0.00 0.00 0.00 0.00 0.00 0.00 0.00 0.00 0.00 0.00 0.00 0.00 0.00 0.00 0.00 0.00 0.00 0.00 0.00 0.00 0.00 0.00
0.00 0.00 0.00 0.00 0.00 0.00 0.00 0.00 0.00 0.00 0.00 0.00 0.00 0.00 0.00 0.00 0.00 0.00 0.00 0.00 0.00 0.00 0.00 0.00 0.00 0.00 0.00 0.00 0.00 0.00 0.00 0.00 0.00 0.00 0.00 0.00 0.00 0.00 0.00 0.00 0.00 0.00 0.00 0.00 0.00
0.00 0.00 0.00 0.00 0.00 0.00 0.00 0.00 0.00 0.00 0.00 0.00 0.00 0.00 0.00 0.00 0.00 0.00 0.00 0.00 0.00 0.00 0.00 0.00 0.00 0.00 0.00 0.00 0.00 0.00 0.00 0.00 0.00 0.00 0.00 0.00 0.00 0.00 0.00 0.00 0.00 0.00 0.00 0.00 0.00
0.00 0.00 0.00 0.00 0.00 0.00 0.00 0.00 0.00 0.00 0.00 0.00 0.00 0.00 0.00 0.00 0.00 0.00 0.00 0.00 0.00 0.00 0.00 0.00 0.00 0.00 0.00 0.00 0.00 0.00 0.00 0.00 0.00 0.00 0.00 0.00 0.00 0.00 0.00 0.00 0.00 0.00 0.00 0.00 0.00
0.00 0.00 0.00 0.00 0.00 0.00 0.00 0.00 0.00 0.00 0.00 0.00 0.00 0.00 0.00 0.00 0.00 0.00 0.00 0.00 0.00 0.00 0.00 0.00 0.00 0.00 0.00 0.00 0.00 0.00 0.00 0.00 0.00 0.00 0.00 0.00 0.00 0.00 0.00 0.00 0.00 0.00 0.00 0.00 0.00
0.00 0.00 0.00 0.00 0.00 0.00 0.00 0.00 0.00 0.00 0.00 0.00 0.00 0.00 0.00 0.00 0.00 0.00 0.00 0.00 0.00 0.00 0.00 0.00 0.00 0.00 0.00 0.00 0.00 0.00 0.00 0.00 0.00 0.00 0.00 0.00 0.00 0.00 0.00 0.00 0.00 0.00 0.00 0.00 0.00
0.00 0.00 0.00 0.00 0.00 0.00 0.00 0.00 0.00 0.00 0.00 0.00 0.00 0.00 0.00 0.00 0.00 0.00 0.00 0.00 0.00 0.00 0.00 0.00 0.00 0.00 0.00 0.00 0.00 0.00 0.00 0.00 0.00 0.00 0.00 0.00 0.00 0.00 0.00 0.00 0.00 0.00 0.00 0.00 0.00
0.00 0.00 0.00 0.00 0.00 0.00 0.00 0.00 0.00 0.00 0.00 0.00 0.00 0.00 0.00 0.00 0.00 0.00 0.00 0.00 0.00 0.00 0.00 0.00 0.00 0.00 0.00 0.00 0.00 0.00 0.00 0.00 0.00 0.00 0.00 0.00 0.00 0.00 0.00 0.00 0.00 0.00 0.00 0.00 0.00
0.00 0.00 0.00 0.00 0.00 0.00 0.00 0.00 0.00 0.00 0.00 0.00 0.00 0.00 0.00 0.00 0.00 0.00 0.00 0.00 0.00 0.00 0.00 0.00 0.00 0.00 0.00 0.00 0.00 0.00 0.00 0.00 0.00 0.00 0.00 0.00 0.00 0.00 0.00 0.00 0.00 0.00 0.00 0.00 0.00
0.00 0.00 0.00 0.01 0.00 0.00 0.00 0.00 0.00 0.00 0.00 0.00 0.00 0.00 0.00 0.00 0.00 0.00 0.00 0.00 0.00 0.00 0.00 0.00 0.00 0.00 0.00 0.00 0.00 0.00 0.00 0.00 0.00 0.00 0.00 0.00 0.00 0.00 0.00 0.00 0.00 0.00 0.00 0.00 0.00
0.00 0.00 0.00 0.01 0.00 0.00 0.00 0.00 0.00 0.00 0.00 0.00 0.00 0.00 0.00 0.00 0.00 0.00 0.00 0.00 0.00 0.00 0.00 0.00 0.00 0.00 0.00 0.00 0.00 0.00 0.00 0.00 0.00 0.00 0.00 0.00 0.00 0.00 0.00 0.00 0.00 0.00 0.00 0.00 0.00
0.00 0.00 0.00 0.01 0.00 0.00 0.00 0.00 0.00 0.00 0.00 0.00 0.00 0.00 0.00 0.00 0.00 0.00 0.00 0.00 0.00 0.00 0.00 0.00 0.00 0.00 0.00 0.00 0.00 0.00 0.00 0.00 0.00 0.00 0.00 0.00 0.00 0.00 0.00 0.00 0.00 0.00 0.00 0.00 0.00
0.00 0.00 0.00 0.01 0.02 0.02 0.03 0.01 0.00 0.00 0.00 0.00 0.00 0.00 0.00 0.00 0.00 0.00 0.00 0.00 0.00 0.00 0.00 0.00 0.00 0.00 0.00 0.00 0.00 0.00 0.00 0.00 0.00 0.00 0.00 0.00 0.00 0.00 0.00 0.00 0.00 0.00 0.00 0.00 0.00
0.00 0.00 0.00 0.00 0.03 0.03 0.02 0.00 0.00 0.00 0.00 0.00 0.00 0.00 0.00 0.00 0.00 0.00 0.00 0.00 0.00 0.00 0.00 0.00 0.00 0.00 0.00 0.00 0.00 0.00 0.00 0.00 0.00 0.00 0.00 0.00 0.00 0.00 0.00 0.00 0.00 0.00 0.00 0.00 0.00
0.01 0.00 0.00 0.00 0.02 0.02 0.00 0.00 0.00 0.00 0.00 0.00 0.00 0.00 0.00 0.00 0.00 0.00 0.00 0.00 0.00 0.00 0.00 0.00 0.00 0.00 0.00 0.00 0.00 0.00 0.00 0.00 0.00 0.00 0.00 0.00 0.00 0.00 0.00 0.00 0.00 0.00 0.00 0.00 0.00
0.01 0.00 0.00 0.00 0.00 0.00 0.00 0.00 0.00 0.00 0.00 0.00 0.00 0.00 0.00 0.00 0.00 0.00 0.00 0.00 0.00 0.00 0.00 0.00 0.00 0.00 0.00 0.00 0.00 0.00 0.00 0.00 0.00 0.00 0.00 0.00 0.00 0.00 0.00 0.00 0.00 0.00 0.00 0.00 0.00
0.00 0.00 0.00 0.01 0.00 0.00 0.00 0.00 0.00 0.00 0.00 0.00 0.00 0.00 0.00 0.00 0.00 0.00 0.00 0.00 0.00 0.00 0.00 0.00 0.00 0.00 0.00 0.00 0.00 0.00 0.00 0.00 0.00 0.00 0.00 0.00 0.00 0.00 0.00 0.00 0.00 0.00 0.00 0.00 0.00
0.00 0.00 0.00 0.00 0.00 0.00 0.00 0.00 0.00 0.00 0.00 0.00 0.00 0.00 0.00 0.00 0.00 0.00 0.00 0.00 0.00 0.00 0.00 0.00 0.00 0.00 0.00 0.00 0.00 0.00 0.00 0.00 0.00 0.00 0.00 0.00 0.00 0.00 0.00 0.00 0.00 0.00 0.00 0.00 0.00
0.00 0.00 0.00 0.00 0.00 0.00 0.00 0.00 0.00 0.00 0.00 0.00 0.00 0.00 0.00 0.00 0.00 0.00 0.00 0.00 0.00 0.00 0.00 0.00 0.00 0.00 0.00 0.00 0.00 0.00 0.00 0.00 0.00 0.00 0.00 0.00 0.00 0.00 0.00 0.00 0.00 0.00 0.00 0.00 0.00
0.00 0.00 0.00 0.00 0.00 0.00 0.00 0.00 0.00 0.00 0.00 0.00 0.00 0.00 0.00 0.00 0.00 0.00 0.00 0.00 0.00 0.00 0.00 0.00 0.00 0.00 0.00 0.00 0.00 0.00 0.00 0.00 0.00 0.00 0.00 0.00 0.00 0.00 0.00 0.00 0.00 0.00 0.00 0.00 0.00
0.00 0.00 0.00 0.00 0.00 0.00 0.00 0.00 0.00 0.00 0.00 0.00 0.00 0.00 0.00 0.00 0.00 0.00 0.00 0.00 0.00 0.00 0.00 0.00 0.00 0.00 0.00 0.00 0.00 0.00 0.00 0.00 0.00 0.00 0.00 0.00 0.00 0.00 0.00 0.00 0.00 0.00 0.00 0.00 0.00
MSLP
1019.84 1019.73 1019.73 1019.71 1019.65 1019.66 1019.50 1019.42 1019.37 1019.27 1019.11 1018.93 1018.68 1018.42 1018.11 1017.73 1017.21 1017.18 1016.91 1016.60 1016.34 1016.26 1016.20 1016.24 1016.38 1016.74 1016.97 1018.08 1018.62 1019.21 1020.21 1020.88 1020.44 1020.12 1019.37 1019.06 1018.92 1018.83 1018.94 1019.05 1019.16 1019.49 1020.40 1021.70 1021.70
1019.77 1019.82 1019.80 1019.79 1019.69 1019.62 1019.59 1019.46 1019.33 1019.20 1019.03 1018.86 1018.49 1018.10 1017.85 1017.59 1017.37 1016.99 1016.68 1016.33 1016.19 1016.27 1016.37 1016.50 1016.87 1017.05 1017.85 1018.48 1018.96 1019.43 1020.35 1020.08 1019.67 1019.50 1019.34 1019.23 1019.12 1019.17 1019.38 1019.61 1019.79 1020.33 1021.18 1022.09 1022.20
1019.67 1019.82 1019.84 1019.83 1019.73 1019.60 1019.50 1019.41 1019.33 1019.16 1018.97 1018.68 1018.27 1017.95 1017.73 1017.58 1017.32 1016.93 1016.53 1016.31 1016.27 1016.27 1016.37 1016.65 1016.96 1017.33 1018.24 1018.63 1019.27 1019.51 1019.68 1019.56 1019.29 1019.23 1019.22 1019.29 1019.28 1019.32 1019.72 1020.35 1020.57 1021.29 1022.04 1022.75 1023.00
1019.50 1019.62 1019.68 1019.64 1019.65 1019.54 1019.45 1019.30 1019.26 1019.06 1018.73 1018.44 1018.10 1017.80 1017.50 1017.41 1017.51 1016.72 1016.48 1016.34 1016.38 1016.33 1016.51 1016.91 1017.31 1017.89 1018.59 1018.93 1019.15 1019.42 1019.46 1019.48 1019.26 1019.20 1019.35 1019.44 1019.51 1019.75 1020.19 1020.90 1021.38 1022.29 1023.04 1023.64 1023.82
1019.34 1019.39 1019.40 1019.48 1019.47 1019.45 1019.39 1019.21 1019.00 1018.76 1018.45 1018.27 1018.02 1017.73 1017.38 1017.50 1017.01 1016.56 1016.49 1016.40 1016.44 1016.50 1016.82 1017.15 1017.56 1018.09 1018.67 1018.97 1019.20 1019.38 1019.49 1019.49 1019.33 1019.34 1019.41 1019.53 1019.68 1019.93 1020.54 1021.44 1022.56 1023.36 1023.97 1024.41 1024.56
1019.03 1019.19 1019.23 1019.28 1019.34 1019.30 1019.23 1019.07 1018.85 1018.63 1018.40 1018.18 1018.04 1017.96 1017.90 1017.64 1016.59 1016.50 1016.58 1016.55 1016.66 1016.75 1017.09 1017.23 1017.58 1017.92 1018.67 1019.14 1019.33 1019.45 1019.57 1019.55 1019.21 1019.20 1019.31 1019.57 1019.86 1020.17 1020.86 1022.00 1023.15 1023.86 1024.54 1024.93 1025.06
1018.80 1018.94 1019.06 1019.08 1019.17 1019.10 1018.99 1018.92 1018.79 1018.59 1018.32 1018.10 1018.00 1018.06 1017.85 1017.08 1016.53 1016.51 1016.52 1016.83 1016.83 1016.87 1017.29 1017.45 1017.63 1017.99 1018.61 1019.38 1019.65 1019.77 1019.95 1019.75 1019.10 1019.17 1019.18 1019.34 1020.22 1020.07 1020.61 1021.94 1023.18 1024.01 1024.53 1024.95 1025.46
1018.50 1018.68 1018.84 1018.89 1018.96 1018.95 1018.82 1018.73 1018.64 1018.39 1018.32 1018.20 1018.10 1018.12 1017.41 1016.61 1016.59 1016.66 1016.76 1017.09 1017.16 1017.10 1017.30 1017.58 1017.70 1018.49 1019.11 1019.72 1020.28 1020.52 1020.59 1020.36 1019.29 1019.24 1019.18 1019.50 1019.61 1019.81 1020.49 1021.51 1023.09 1024.13 1025.11 1025.71 1026.01
1018.21 1018.36 1018.60 1018.71 1018.80 1018.88 1018.75 1018.57 1018.42 1018.36 1018.32 1018.30 1018.30 1018.01 1017.27 1016.69 1016.79 1016.81 1016.89 1017.22 1017.45 1017.68 1017.82 1017.85 1018.30 1019.62 1019.90 1020.46 1021.22 1021.51 1021.26 1020.93 1019.93 1019.40 1019.39 1019.64 1019.65 1019.86 1020.86 1021.96 1023.56 1024.66 1025.34 1025.87 1026.16
1017.86 1018.05 1018.22 1018.50 1018.63 1018.75 1018.64 1018.43 1018.30 1018.33 1018.41 1018.38 1018.29 1018.39 1017.11 1016.74 1016.80 1016.93 1017.05 1017.29 1017.79 1018.13 1018.42 1018.85 1019.79 1020.47 1021.00 1021.13 1021.43 1021.50 1021.62 1021.08 1020.46 1019.82 1019.72 1019.96 1019.80 1020.29 1020.95 1022.24 1023.69 1024.79 1025.52 1025.97 1026.33
1017.53 1017.75 1017.83 1018.12 1018.45 1018.57 1018.63 1018.59 1018.85 1018.71 1018.41 1017.28 1017.14 1016.91 1016.63 1016.92 1016.92 1017.15 1017.21 1017.48 1017.99 1018.70 1019.37 1019.95 1020.45 1020.47 1020.19 1020.30 1020.60 1020.97 1021.36 1020.99 1020.41 1020.02 1020.13 1020.11 1020.38 1019.92 1021.06 1022.28 1023.51 1024.70 1025.39 1025.94 1026.38
1016.99 1017.38 1017.63 1017.77 1018.16 1018.42 1018.60 1018.46 1017.86 1018.02 1017.60 1016.59 1016.75 1016.68 1016.38 1016.48 1017.07 1017.34 1017.27 1017.73 1018.33 1019.27 1019.92 1020.68 1020.29 1019.73 1020.17 1020.73 1020.99 1021.34 1021.61 1021.32 1020.85 1020.55 1020.73 1020.59 1020.79 1020.45 1021.08 1022.30 1023.35 1024.32 1025.29 1025.92 1026.52
1016.33 1016.88 1017.27 1017.57 1017.92 1018.35 1018.33 1017.94 1017.56 1017.66 1017.85 1016.37 1016.13 1016.06 1016.13 1016.41 1016.57 1017.07 1017.35 1017.84 1018.49 1019.52 1019.96 1020.05 1019.59 1019.55 1020.13 1020.81 1021.31 1021.55 1021.64 1021.64 1021.48 1021.28 1021.28 1021.43 1021.18 1020.68 1021.45 1022.54 1023.73 1025.09 1026.17 1026.89 1027.20
1015.68 1016.33 1016.92 1017.40 1018.15 1017.74 1017.75 1017.03 1017.53 1017.83 1017.93 1016.29 1015.85 1015.25 1015.69 1016.02 1016.90 1016.96 1017.11 1017.50 1018.62 1019.13 1020.13 1020.22 1019.45 1019.67 1020.15 1020.51 1020.83 1021.36 1021.09 1021.46 1021.87 1022.29 1022.41 1022.14 1021.96 1021.13 1021.66 1022.87 1024.22 1025.30 1026.40 1027.01 1027.35
1015.02 1015.69 1016.37 1016.73 1016.63 1017.05 1016.58 1016.64 1017.29 1017.94 1017.87 1015.22 1015.55 1015.57 1015.69 1016.23 1016.78 1017.33 1017.33 1017.41 1018.19 1019.03 1019.78 1019.30 1019.50 1019.73 1019.99 1019.87 1020.35 1020.67 1020.89 1021.61 1022.13 1022.74 1023.05 1022.91 1023.25 1021.49 1021.95 1022.72 1024.31 1025.58 1026.61 1027.08 1027.21
1014.20 1014.97 1015.72 1016.32 1016.36 1016.17 1016.32 1016.74 1017.29 1018.30 1015.97 1015.25 1015.39 1015.55 1016.16 1016.66 1017.16 1017.57 1017.57 1017.65 1018.21 1019.03 1019.40 1019.30 1019.17 1019.21 1019.06 1019.56 1019.87 1020.73 1021.30 1022.23 1023.00 1023.40 1023.58 1022.22 1022.52 1021.82 1021.78 1022.09 1023.54 1024.95 1026.26 1027.54 1028.30
1013.36 1014.06 1014.90 1015.02 1015.01 1015.76 1016.25 1016.72 1017.80 1016.30 1014.13 1014.94 1015.28 1015.66 1016.06 1016.72 1017.49 1017.50 1017.87 1018.23 1018.43 1019.31 1019.57 1019.35 1019.00 1018.72 1018.84 1019.76 1020.39 1020.65 1021.43 1022.83 1023.77 1024.00 1022.93 1022.31 1022.55 1020.47 1020.71 1021.59 1022.57 1023.71 1025.19 1026.44 1027.22
1012.55 1013.28 1013.71 1014.10 1014.75 1015.05 1016.23 1016.60 1015.80 1012.45 1013.54 1014.13 1014.58 1015.69 1016.34 1016.67 1017.34 1017.83 1018.00 1018.39 1018.24 1018.18 1018.94 1018.98 1018.85 1018.20 1018.18 1018.41 1019.23 1020.20 1020.52 1021.20 1022.19 1023.41 1022.92 1022.55 1021.61 1019.92 1020.17 1021.40 1022.71 1023.84 1024.84 1026.05 1026.88
1011.58 1012.29 1012.55 1013.13 1014.02 1014.22 1015.37 1014.58 1011.17 1011.21 1011.87 1013.36 1014.65 1015.27 1015.98 1016.30 1016.71 1017.71 1017.86 1017.49 1017.02 1017.05 1017.41 1017.92 1017.74 1017.55 1017.75 1017.95 1018.37 1019.93 1020.29 1020.30 1021.67 1023.68 1023.23 1021.36 1020.43 1019.82 1020.81 1021.74 1022.64 1023.75 1024.92 1025.72 1026.27
1010.04 1010.65 1010.59 1011.80 1012.97 1013.51 1013.42 1011.67 1010.69 1010.21 1011.00 1011.94 1012.61 1013.20 1014.30 1015.48 1016.33 1016.99 1017.12 1015.81 1015.84 1015.55 1015.55 1016.17 1017.22 1017.59 1017.81 1017.95 1018.58 1018.72 1019.15 1020.36 1021.52 1022.56 1022.51 1021.06 1020.52 1019.83 1020.70 1021.42 1022.61 1023.84 1024.48 1025.10 1025.65
1008.41 1008.64 1008.00 1010.22 1012.00 1011.17 1009.80 1009.02 1009.79 1009.81 1009.90 1010.82 1011.29 1011.98 1012.92 1013.93 1014.67 1015.42 1015.03 1014.85 1014.64 1015.09 1015.33 1015.87 1016.43 1018.16 1018.15 1017.89 1017.75 1018.94 1019.17 1019.75 1020.21 1021.01 1021.30 1021.16 1019.69 1018.89 1019.59 1020.36 1021.46 1022.53 1023.41 1024.11 1024.74
1006.17 1006.17 1006.64 1008.41 1009.26 1008.23 1008.14 1007.35 1008.55 1008.47 1009.54 1009.68 1010.00 1010.51 1011.34 1012.48 1013.38 1013.95 1013.90 1013.24 1013.01 1013.69 1015.01 1015.14 1016.09 1017.46 1017.48 1017.48 1017.53 1017.44 1017.79 1018.31 1019.46 1020.33 1020.55 1020.53 1018.76 1018.88 1019.30 1019.89 1020.56 1021.68 1022.63 1023.19 1024.01
1004.96 1005.14 1005.39 1005.92 1005.64 1006.09 1007.25 1007.46 1008.08 1008.21 1008.39 1008.89 1009.25 1009.37 1010.14 1011.02 1011.93 1011.96 1012.61 1012.37 1012.68 1012.85 1013.21 1014.25 1015.40 1017.10 1017.83 1018.14 1018.01 1017.80 1017.70 1017.91 1018.65 1019.10 1019.16 1020.07 1018.59 1018.82 1019.01 1019.77 1020.41 1021.23 1022.10 1022.73 1023.54
1004.34 1004.75 1004.77 1004.06 1004.28 1004.95 1005.92 1006.10 1006.90 1007.16 1007.71 1007.94 1008.00 1008.89 1009.52 1009.81 1010.15 1011.04 1011.98 1012.37 1012.40 1012.61 1012.56 1012.61 1013.96 1014.77 1014.80 1015.34 1015.90 1017.43 1017.43 1017.60 1017.86 1018.80 1018.50 1017.56 1017.77 1018.88 1019.16 1019.42 1020.16 1020.66 1021.24 1022.06 1022.70
1004.36 1004.80 1004.54 1004.04 1003.89 1003.81 1004.88 1005.13 1005.70 1006.08 1006.84 1007.21 1007.67 1007.11 1008.06 1008.87 1009.67 1010.16 1011.07 1012.37 1012.78 1012.82 1012.77 1012.46 1013.85 1014.75 1015.09 1015.17 1015.52 1015.80 1016.36 1017.16 1017.51 1017.55 1017.75 1016.98 1017.21 1017.73 1018.13 1018.74 1019.23 1019.83 1020.83 1021.70 1022.24
1005.37 1005.83 1005.77 1005.02 1004.42 1004.29 1003.93 1003.56 1004.13 1004.90 1005.91 1006.04 1006.30 1006.89 1007.43 1007.19 1007.40 1009.19 1010.04 1010.89 1011.59 1013.16 1012.83 1012.94 1013.98 1014.67 1015.66 1015.78 1016.29 1016.50 1016.01 1016.20 1016.79 1016.97 1016.91 1017.00 1016.58 1016.84 1017.41 1018.27 1019.19 1019.75 1020.65 1021.27 1021.83
1005.63 1006.09 1005.39 1005.17 1005.05 1005.09 1004.50 1004.05 1003.80 1004.74 1005.09 1005.06 1005.83 1007.06 1007.39 1006.98 1008.12 1009.11 1008.69 1009.54 1010.29 1011.69 1012.75 1013.50 1014.10 1014.95 1015.85 1016.69 1017.00 1016.96 1014.81 1015.74 1015.99 1015.89 1016.11 1016.94 1015.91 1017.27 1017.95 1018.50 1018.95 1019.70 1020.40 1020.65 1021.32
Thickness
5679 5682 5685 5687 5690 5692 5695 5697 5699 5701 5703 5706 5710 5714 5717 5721 5727 5728 5729 5733 5737 5739 5740 5739 5737 5733 5732 5721 5717 5710 5686 5674 5684 5680 5694 5700 5700 5704 5704 5703 5704 5705 5699 5688 5689
5674 5677 5681 5683 5686 5689 5691 5694 5696 5698 5702 5705 5709 5714 5717 5720 5723 5725 5730 5733 5735 5736 5734 5730 5725 5726 5713 5713 5707 5698 5680 5687 5693 5691 5694 5696 5697 5697 5698 5694 5699 5699 5693 5685 5685
5670 5672 5675 5678 5681 5685 5688 5691 5693 5696 5699 5703 5708 5712 5715 5718 5720 5720 5727 5730 5731 5732 5731 5728 5724 5720 5708 5708 5700 5692 5687 5692 5697 5697 5696 5694 5694 5696 5693 5688 5694 5692 5686 5678 5676
5665 5667 5670 5673 5677 5680 5683 5687 5689 5693 5697 5701 5705 5709 5713 5715 5698 5720 5723 5725 5726 5727 5725 5720 5714 5706 5696 5696 5697 5693 5692 5690 5696 5696 5692 5690 5691 5691 5689 5689 5684 5676 5671 5666 5667
5660 5663 5666 5668 5671 5675 5678 5682 5686 5690 5695 5698 5702 5705 5710 5704 5706 5718 5719 5720 5720 5720 5715 5711 5705 5699 5692 5692 5691 5688 5688 5688 5690 5688 5687 5687 5685 5686 5685 5675 5668 5664 5660 5658 5657
5656 5658 5661 5663 5666 5669 5673 5677 5681 5685 5689 5693 5695 5698 5699 5689 5711 5713 5713 5714 5713 5712 5707 5707 5700 5700 5689 5686 5685 5685 5682 5680 5683 5686 5685 5683 5680 5680 5677 5664 5659 5656 5651 5650 5650
5650 5652 5654 5658 5660 5664 5668 5671 5674 5678 5683 5686 5689 5691 5691 5693 5705 5706 5707 5705 5707 5706 5699 5701 5699 5696 5689 5679 5680 5678 5676 5673 5681 5681 5682 5678 5670 5671 5675 5666 5656 5652 5649 5647 5643
5643 5646 5648 5651 5654 5657 5661 5664 5667 5672 5674 5678 5680 5683 5682 5696 5698 5698 5698 5696 5697 5698 5696 5696 5695 5684 5680 5674 5665 5665 5659 5658 5678 5675 5676 5676 5669 5676 5670 5669 5656 5646 5639 5636 5634
5637 5639 5641 5643 5646 5649 5652 5657 5660 5663 5666 5668 5671 5675 5676 5690 5686 5689 5690 5686 5686 5686 5686 5687 5681 5666 5667 5653 5646 5641 5648 5647 5658 5668 5668 5668 5670 5673 5663 5660 5646 5636 5633 5630 5626
5630 5632 5634 5635 5638 5640 5643 5648 5652 5654 5656 5658 5661 5661 5673 5677 5679 5680 5680 5679 5675 5673 5671 5667 5654 5647 5641 5641 5634 5638 5637 5640 5648 5661 5659 5656 5660 5664 5660 5653 5641 5628 5623 5622 5619
5621 5624 5627 5628 5629 5632 5634 5637 5639 5642 5645 5657 5661 5665 5667 5668 5672 5669 5671 5669 5666 5658 5649 5646 5641 5642 5645 5646 5649 5640 5637 5644 5648 5651 5651 5647 5645 5665 5653 5642 5629 5621 5620 5616 5613
5615 5616 5618 5621 5621 5622 5624 5628 5636 5637 5637 5651 5652 5655 5662 5662 5656 5658 5662 5656 5652 5641 5636 5631 5632 5646 5644 5637 5639 5631 5629 5630 5634 5638 5637 5637 5637 5652 5651 5643 5632 5623 5616 5612 5607
5609 5609 5610 5611 5613 5614 5617 5622 5627 5627 5620 5643 5645 5647 5651 5652 5653 5648 5652 5647 5641 5628 5627 5626 5643 5639 5637 5627 5624 5619 5620 5620 5626 5625 5625 5623 5624 5640 5632 5620 5613 5606 5598 5594 5593
5602 5601 5600 5601 5602 5610 5612 5618 5616 5615 5598 5624 5638 5642 5643 5646 5640 5645 5646 5644 5633 5628 5616 5619 5634 5634 5627 5626 5622 5612 5620 5618 5617 5610 5604 5614 5604 5630 5629 5615 5601 5591 5584 5581 5580
5594 5594 5593 5596 5602 5603 5609 5609 5607 5603 5573 5628 5626 5635 5635 5636 5633 5633 5636 5635 5622 5621 5618 5624 5617 5619 5618 5622 5618 5618 5612 5608 5605 5597 5594 5601 5590 5609 5614 5624 5594 5580 5574 5572 5573
5584 5585 5584 5586 5593 5601 5598 5596 5596 5579 5577 5609 5613 5620 5621 5623 5621 5620 5625 5626 5621 5613 5612 5614 5616 5614 5619 5615 5614 5603 5602 5592 5576 5580 5571 5601 5598 5597 5612 5618 5596 5579 5570 5559 5552
5575 5576 5577 5583 5593 5587 5584 5582 5567 5570 5611 5604 5604 5608 5615 5611 5610 5614 5610 5606 5604 5593 5596 5604 5606 5612 5610 5600 5600 5600 5593 5578 5572 5564 5583 5581 5580 5611 5613 5602 5598 5587 5572 5560 5553
5567 5566 5571 5576 5578 5576 5567 5565 5563 5607 5599 5600 5599 5596 5602 5604 5602 5597 5592 5594 5598 5602 5581 5589 5594 5600 5605 5606 5597 5585 5591 5583 5576 5566 5579 5560 5580 5608 5597 5579 5570 5568 5562 5550 5541
5559 5559 5564 5567 5567 5566 5557 5559 5599 5601 5609 5598 5596 5591 5588 5594 5595 5588 5582 5587 5599 5596 5601 5582 5592 5598 5600 5599 5600 5583 5579 5589 5562 5480 5536 5580 5590 5599 5570 5569 5558 5552 5545 5540 5535
5561 5559 5568 5565 5559 5553 5554 5571 5591 5605 5600 5598 5603 5601 5588 5583 5584 5577 5574 5595 5598 5599 5601 5596 5588 5587 5587 5590 5584 5586 5584 5569 5548 5551 5528 5569 5576 5591 5573 5569 5549 5539 5537 5533 5525
5560 5559 5573 5564 5551 5553 5562 5583 5590 5596 5601 5590 5596 5592 5588 5579 5583 5570 5589 5595 5596 5586 5591 5586 5588 5571 5574 5576 5581 5571 5568 5561 5566 5553 5550 5536 5571 5569 5575 5567 5553 5542 5533 5526 5517
5567 5567 5569 5562 5556 5565 5566 5590 5590 5592 5589 5588 5591 5591 5588 5580 5578 5574 5581 5595 5594 5591 5581 5583 5571 5544 5567 5566 5567 5574 5571 5571 5560 5552 5525 5537 5575 5553 5557 5552 5546 5533 5524 5515 5505
5563 5567 5563 5565 5566 5565 5567 5569 5574 5577 5583 5583 5584 5587 5585 5580 5579 5579 5571 5589 5583 5588 5585 5579 5559 5534 5546 5555 5549 5554 5556 5556 5546 5534 5527 5538 5552 5536 5537 5535 5527 5521 5509 5503 5494
5550 5554 5550 5561 5573 5574 5566 5572 5568 5573 5574 5577 5580 5577 5574 5577 5586 5571 5568 5572 5572 5578 5583 5587 5561 5567 5586 5576 5563 5543 5544 5539 5550 5515 5532 5554 5566 5525 5531 5532 5518 5508 5501 5490 5483
5529 5530 5537 5558 5560 5572 5568 5571 5569 5570 5569 5572 5563 5581 5579 5572 5574 5577 5569 5555 5558 5563 5563 5573 5559 5539 5555 5561 5554 5557 5546 5526 5531 5542 5535 5557 5545 5531 5531 5521 5512 5502 5490 5477 5473
5508 5508 5512 5524 5538 5550 5561 5571 5572 5575 5562 5567 5574 5575 5577 5582 5587 5573 5573 5559 5560 5538 5546 5543 5544 5528 5521 5527 5525 5524 5529 5521 5525 5527 5521 5530 5529 5531 5519 5501 5494 5488 5474 5468 5461
5483 5489 5508 5514 5519 5529 5545 5558 5565 5568 5556 5569 5572 5568 5565 5580 5564 5544 5564 5557 5555 5545 5534 5528 5516 5524 5536 5483 5499 5508 5528 5516 5519 5511 5529 5498 5539 5491 5493 5488 5480 5471 5459 5457 5446